Weather in Krasnoarmeyskoye

Russia / Saratov Oblast     51°12′43″N   44°24′02″E
temp.,
°C
wind,
m/s
gust,
m/s
humid.,
%
clouds,
%
prec.,
mm/h
press.,
hPa
HPBL,
m
19 september, sun
sun1901:00+9e3641100 0.0 1023197
04:00+8e5956100 0.0 1022382
07:00+8e51057100 0.0 1022350
10:00+9ese61054100 0.0 1023440
13:00+13ese7838100 0.0 1022818
16:00+14ese7834100 0.0 10201045
19:00+13ese61135100 0.0 1020574
22:00+13ese81433100 0.0 1019553
20 september, mon
mon2001:00+12ese71534100 0.0 1018547
04:00+11ese61436100 0.0 1018543
07:00+10ese71447100 0.8 1017558
10:00+9ese81659100 2.4 1016650
13:00+8ese81675100 1.4 1017764
16:00+8ese71477100 3.8 1016678
19:00+9ese71488100 0.6 1015657
22:00+9ese61187100 3.1 1016444
21 september, tue
tue2101:00+9ese61286100 1.6 1015413
04:00+9ese6129154 2.3 1014290
07:00+8e4108819 0.0 1014226
10:00+12ese4668100 0.2 1013352
13:00+13sse1473100 0.1 1013119
16:00+14sse258653 1.4 1011220
19:00+13s2286100 1.6 101114
22:00+13nne1187100 1.6 101012
22 september, wed
wed2201:00+12wnw3389100 0.0 101053
04:00+12nw1185100 0.0 101010
07:00+12ssw3684100 0.0 1010162
10:00+10wsw4791100 0.1 1011318
13:00+12wsw356776 0.0 1011582
16:00+15sw455066 0.0 10111523
19:00+13ssw2455100 0.0 1012108
22:00+11nnw2363100 0.0 1013112
23 september, thu
thu2301:00+10w226962 0.0 101435
04:00+8wnw117899 0.0 101410
07:00+7wnw1279100 0.0 101412
10:00+10wnw2266100 0.0 1013284
13:00+12nw2256100 0.0 1013533
16:00+13nw114910 0.0 1012893
19:00+10nne1159100 0.0 101210
22:00+9ne2263100 0.0 101212